Foehn-Box 5     Le Cottier - Séez                      
EPHEMERIDE     (heures GMT)
Lever Zenith Coucher
4:9:56 11:39:22 19:8:7

Validation GPS le : 21-7-25 5:10  (GMT)

BATTERIE : 4.35      SOLAIRE : 4.68

SIGNAL : 23.99 ALTITUDE : 1396

FOEHN-BOX 5           Date :  25/07/2021   
Heure Vent
instant
Vent
moyen
Vent
mini
Vent
maxi
Direction
vent
Tempe
-rature
Pression
Humidite
09:05:15 3 2 0 4 14.4 861.6 62.5
09:00:14 1 1 0 3 14.9 861.6 63.0
08:55:14 1 1 0 3 14.6 861.8 62.6
08:50:14 0 0 0 1 14.3 861.9 62.8
08:45:14 0 0 0 1 14.1 861.8 62.6
08:40:14 0 1 0 3 13.8 861.8 62.5
08:35:13 0 1 0 3 13.8 862.0 62.6
08:30:13 0 0 0 1 13.9 862.0 62.9
08:25:14 0 0 0 1 14.0 862.0 62.9
08:20:13 0 0 0 0 13.8 862.1 62.6
08:15:14 0 0 0 1 13.7 862.0 63.0
08:10:14 0 2 0 4 13.7 862.0 62.9
08:05:14 0 0 0 1 13.7 862.0 63.0
08:00:14 0 1 0 3 13.6 862.0 63.1
07:55:13 0 1 0 3 13.6 862.1 63.1
07:50:14 1 0 0 1 13.4 862.1 63.0
07:45:13 0 0 0 0 13.3 862.1 63.3
07:40:14 0 0 0 0 13.2 862.2 63.1
07:35:14 0 0 0 1 13.2 862.2 62.7
07:30:14 1 0 0 1 13.1 862.2 63.2
07:25:14 0 0 0 0 13.0 862.2 62.9
07:20:14 0 0 0 0 13.1 862.2 63.4
07:15:19 0 0 0 0 12.9 862.1 63.5